Regional Weather Roundup
Issued by NWS San Angelo, TX

Home | Current Version | Previous Version | Text Only | Print | Product List | Glossary On
Versions: 1 2 3 4 5 6 7 8 9 10 11 12 13 14 15 16 17 18 19 20 21 22 23 24 25 26 27 28 29 30 31 32 33 34 35 36 37 38 39 40 41 42 43 44 45 46 47 48 49 50
000
ASUS44 KSJT 171402
RWRSJT
WEST CENTRAL TEXAS REGIONAL WEATHER ROUNDUP
NATIONAL WEATHER SERVICE SAN ANGELO TX
800 AM CST SUN DEC 17 2017

NOTE: "FAIR" INDICATES FEW OR NO CLOUDS BELOW 12,000 FEET WITH NO
SIGNIFICANT WEATHER AND/OR OBSTRUCTIONS TO VISIBILITY.

TXZ049-054-064>066-071>073-076>078-098-099-113-114-127-128-139-140-
154-155-168>170-171500
...LOCATIONS ACROSS WEST CENTRAL TEXAS...

CITY           SKY/WX    TMP DP  RH WIND       PRES   REMARKS
SAN ANGELO     CLOUDY    40  37  89 SW5       30.01S WCI  37
ABILENE        CLOUDY    41  41 100 S14       29.99R WCI  33
DYESS AFB      CLOUDY    42  40  92 S12       29.98R WCI  36
JUNCTION       CLOUDY    42  42 100 SW5       30.03S WCI  39
SWEETWATER     CLOUDY    40  39  97 S10       29.99S WCI  34
BROWNWOOD      NOT AVBL
COLEMAN        NOT AVBL
SONORA         FOG       39  39 100 CALM      30.06F VSB<1/4
OZONA          SNOW      39  37  93 CALM      30.05S VSB<1/4
BRADY          NOT AVBL
$$

TEXAS PANHANDLE/OKLAHOMA PANHANDLE

CITY           SKY/WX    TMP DP  RH WIND       PRES   REMARKS
AMARILLO       PTCLDY    28  24  85 NW16      29.97R WCI  16
BORGER         PTCLDY    30  25  81 NW7       30.00R WCI  23
CANADIAN       CLOUDY    36  26  66 W10G16    29.96S WCI  28
DALHART        PTCLDY    32  26  78 N8        29.99R WCI  25
DUMAS          MOSUNNY   27  24  87 NW9       29.98R WCI  18
GUYMON         NOT AVBL
HEREFORD       CLOUDY    26  23  87 MISG      29.98F
PAMPA          MOSUNNY   27  23  84 NW12      29.97S WCI  17
PERRYTON       CLOUDY    24  20  85 NW7       29.96R WCI  16
$$

SOUTHERN PANHANDLE/SOUTH PLAINS/ROLLING PLAINS

CITY           SKY/WX    TMP DP  RH WIND       PRES   REMARKS
LUBBOCK        CLOUDY    30  24  78 NW13      29.95R WCI  20
SNYDER         FOG       33  33 100 S5        29.98R VSB<1/4 WCI  28
CHILDRESS      CLOUDY    40  37  89 NW6       29.96S WCI  36
SEMINOLE       SUNNY     32  31  97 NW6       29.99R WCI  26
$$

PERMIAN BASIN

CITY           SKY/WX    TMP DP  RH WIND       PRES   REMARKS
MIDLAND        CLOUDY    37  34  89 S7        29.98R WCI  32
ODESSA         CLOUDY    34  33  96 S5        29.98R WCI  30
WINK           NOT AVBL
$$

FAR WEST/SOUTHWEST MOUNTAINS/TRANS PECOS

CITY           SKY/WX    TMP DP  RH WIND       PRES   REMARKS
ALPINE         CLOUDY    41  34  76 SW7       30.09R WCI  36
DRYDEN           N/A     42  41  96 SW3       30.03R
EL PASO        CLOUDY    36  30  79 SW3       29.97R
FORT STOCKTON  CLOUDY    46  38  73 SW14      30.00R WCI  40
GUADALUPE PASS CLOUDY    38  28  67 SW9       30.00R WCI  31
MARFA          NOT AVBL
PECOS          SUNNY     37  33  84 SW3       29.98R
$$

DALLAS/FORT WORTH METROPLEX

CITY           SKY/WX    TMP DP  RH WIND       PRES   REMARKS
DFW AIRPORT    DRIZZLE   46  44  93 S6        30.06R FOG
FTW MEACHAM    CLOUDY    45  44  97 SE12      30.06F FOG     WCI  39
DAL-EXECUTIVE  CLOUDY    44  44 100 S5        30.07S FOG
GRAND PRAIRIE  CLOUDY    45  45 100 S5        30.09S FOG
ADDISON        CLOUDY    45  43  93 S8        30.09R FOG
MESQUITE       CLOUDY    43  43 100 CALM      30.09S FOG
LANCASTER      CLOUDY    43  43  98 CALM      30.10R FOG
$$

NORTH CENTRAL TEXAS

CITY           SKY/WX    TMP DP  RH WIND       PRES   REMARKS
SHRMAN/DENISON NOT AVBL
GAINESVILLE    NOT AVBL
BRIDGEPORT     CLOUDY    45  44  97 SE6       30.06R
DENTON         CLOUDY    44  44 100 S10       30.07R FOG     WCI  39
WAXAHACHIE     CLOUDY    42  42 100 CALM      30.09S FOG
GRANBURY       CLOUDY    46  44  93 SE6       30.07S FOG
$$

WESTERN NORTH TEXAS

CITY           SKY/WX    TMP DP  RH WIND       PRES   REMARKS
WICHITA FALLS  CLOUDY    40  38  93 SE7       30.01R WCI  35
VERNON         PTSUNNY   40  36  84 CALM      29.99R
BRECKENRIDGE   NOT AVBL
COMANCHE       CLOUDY    45  45 100 SW8       30.04R
$$

CENTRAL AND SOUTH CENTRAL TEXAS

CITY           SKY/WX    TMP DP  RH WIND       PRES   REMARKS
AUSTIN/BERGSTM FOG       46  46 100 SE7       30.09R VSB 1
WACO           CLOUDY    44  43  96 SE6       30.08S FOG
HILLSBORO      CLOUDY    44  44 100 CALM      30.07S
TEMPLE         CLOUDY    45  44  97 S5        30.08S FOG
KILLEEN-GRAY   FOG       45  45 100 CALM      30.05S VSB 1
FORT HOOD      CLOUDY    43  43 100 S3        30.04R FOG
GEORGETOWN     FOG       45  45 100 CALM      30.08S VSB 3/4
LAGO VISTA     FOG       47  46  99 CALM      30.05S VSB 1
SAN MARCOS     FOG       46  45  96 SE3       30.09R VSB 1/2
NEW BRAUNFELS  FOG       46  46 100 SE5       30.07R VSB 1/2
RANDOLPH AFB   FOG       46  45  97 SE5       30.08R VSB 7/8
SAN ANTONIO    CLOUDY    47  46  97 S8        30.08R FOG
STINSON        FOG       48  48 100 CALM      30.06R VSB 1
PLEASANTON     NOT AVBL
LA GRANGE      CLOUDY    48  47  97 CALM      30.07S
GIDDINGS       CLOUDY    42  41  99 CALM      30.10R FOG
$$

EAST TEXAS

CITY           SKY/WX    TMP DP  RH WIND       PRES   REMARKS
PARIS          FOG       43  43 100 S6        30.10R VSB 3/4 WCI  39
CLARKSVILLE    NOT AVBL
TYLER          FOG       43  43 100 CALM      30.09R VSB 1/4
LONGVIEW       FOG       44  44 100 CALM      30.09R VSB 1/8
PALESTINE      FOG       37  37 100 CALM      30.10S VSB 1/4
NACOGDOCHES    FOG       42  41  96 S3        30.10R VSB<1/4
$$

TEXAS HILL COUNTRY AND EDWARDS PLATEAU

CITY           SKY/WX    TMP DP  RH WIND       PRES   REMARKS
LLANO          CLOUDY    46  45  93 CALM      30.09R FOG
HORSESHOE BAY  CLOUDY    47  47 100 CALM      30.05S
KERRVILLE      FOG       43  41  91 NW5       30.03S VSB 1/4
FREDERICKSBRG  FOG       43  42  96 W5        30.04R VSB<1/4
ROCKSPRINGS    NOT AVBL
HONDO          CLOUDY    48  45  89 CALM      30.07R FOG
UVALDE         CLOUDY    46  45  97 S6        30.10R FOG
DEL RIO        CLOUDY    45  45 100 CALM      30.05F FOG
$$

SOUTHEAST TEXAS

CITY           SKY/WX    TMP DP  RH WIND       PRES   REMARKS
COLLEGE STN    FOG       42  42 100 E3        30.10R VSB 1/4
CALDWELL       NOT AVBL
CROCKETT       NOT AVBL
BRENHAM        FOG       44  44 100 CALM      30.11R VSB 1/4
HUNTSVILLE     FOG       44  44 100 CALM      30.10R VSB 1/4
CONROE         FOG       46  46 100 CALM      30.10R VSB 1/4
HOUSTON BUSH   CLOUDY    50  48  93 NW6       30.09S
HOUSTON HOBBY  FOG       49  49 100 CALM      30.09R VSB 1/2
PERLAND        CLOUDY    50  50 100 CALM      30.11R FOG
WHARTON        CLOUDY    48  47  97 CALM      30.10S FOG
$$

THE UPPER TEXAS COAST

CITY           SKY/WX    TMP DP  RH WIND       PRES   REMARKS
ORANGE         NOT AVBL
PORT ARTHUR    PTCLDY    53  51  93 N6        30.07R
GALVESTON      MOCLDY    55  53  93 N5        30.10R
ANGLETON       FOG       50  49  96 CALM      30.10S VSB 1/4
BAY CITY       CLOUDY    49  49 100 CALM      30.10R FOG
$$

TEXAS COASTAL BEND, RIO GRANDE PLAINS DEEP SOUTH TEXAS

CITY           SKY/WX    TMP DP  RH WIND       PRES   REMARKS
VICTORIA       CLOUDY    48  47  96 CALM      30.10R FOG
BEEVILLE       FOG       47  47 100 E5        30.08S VSB 3/4
ROCKPORT       FOG       49  49 100 NE5       30.08S VSB 3/4
PORT ARANSAS   NOT AVBL
PORT LAVACA    CLOUDY    49  47  96 N3        30.10S FOG
CORPUS CHRISTI CLOUDY    49  49 100 NE7       30.08S FOG
KINGSVILLE NAS CLOUDY    50  50 100 N5        30.08R FOG
COTULLA        CLOUDY    48  47  96 CALM      30.09R FOG
LAREDO         CLOUDY    49  48  97 MISG      30.08S FOG
BROWNSVILLE    MOCLDY    52  51  97 E3        30.09R FOG
PORT ISABEL    FOG       48  48 100 N3        30.08R VSB 1/4
HEBBRONVILLE   NOT AVBL
MCALLEN        FOG       51  50  96 N5        30.08R VSB 1/2
WESLACO        NOT AVBL
FALFURRIAS     CLOUDY    49  48  96 CALM      30.09R
EDINBURG       FOG       51  49  95 CALM      30.09R VSB 1/4
$$




USA.gov is the U.S. government's official web portal to all federal, state and local government web resources and services.